Weather History for Goshen, IN

Change the Weather History Date:

Tuesday, May 21, 2013

  Actual Average Record
Temperature  
Mean Temperature 74 °F -  
Max Temperature 84 °F 74 °F 91 °F (1977)
Min Temperature 64 °F 49 °F 33 °F (1954)
Cooling Degree Days 9    
Growing Degree Days 24 (Base 50)    
Moisture  
Dew Point 62 °F    
Average Humidity 69    
Maximum Humidity 94    
Minimum Humidity 49    
Precipitation  
Precipitation 0.35 in - - ()
Sea Level Pressure  
Sea Level Pressure 29.76 in    
Wind  
Wind Speed 14 mph (SW)    
Max Wind Speed 22 mph    
Max Gust Speed 37 mph    
Visibility 9 miles    
Events Rain , Thunderstorm    
Averages and records for this station are not official NWS values.
T = Trace of Precipitation, MM = Missing Value Source: NWS Daily Summary

Daily Weather History Graph

Daily Weather History Graph

Search for Another Location

Airport:

Trip Planner

Search our weather history database for the weather conditions in past years. The results will help you decide how hot, cold, wet, or windy it might be!

Date:

Astronomy

May. 21, 2013 Rise Set
Actual Time 6:18 AM EDT 9:01 PM EDT
Civil Twilight 5:46 AM EDT 9:34 PM EDT
Nautical Twilight 5:05 AM EDT 10:14 PM EDT
Astronomical Twilight 4:19 AM EDT 11:01 PM EDT
Moon 5:12 PM EDT (5/21) 3:48 AM EDT (5/21)
Length of Visible Light 15h 47m
Length of Day
14h 43m
Waxing Gibbous, 84% of the Moon is Illuminated
May 21
Waxing Gibbous
May 25
Full
May 31
Last Quarter
Jun 8
New
Jun 16
First Quarter

Hourly Weather History & Observations

Time (EDT) Temp. Heat Index Dew Point Humidity Pressure Visibility Wind Dir Wind Speed Gust Speed Precip Events Conditions
12:53 AM 77.0 °F - 64.0 °F 64% 29.78 in 10.0 mi South 12.7 mph - N/A   Clear
1:53 AM 75.9 °F - 64.9 °F 69% 29.79 in 10.0 mi South 11.5 mph - N/A   Clear
2:53 AM 75.0 °F - 64.9 °F 71% 29.76 in 10.0 mi South 11.5 mph 18.4 mph N/A   Partly Cloudy
3:53 AM 75.0 °F - 66.0 °F 73% 29.78 in 10.0 mi West 21.9 mph 34.5 mph 0.00 in   Scattered Clouds
4:02 AM 68.0 °F - 60.8 °F 78% 29.82 in 10.0 mi WNW 20.7 mph 36.8 mph 0.00 in Rain , Thunderstorm Light Rain
4:13 AM 64.4 °F - 60.8 °F 88% 29.83 in 1.8 mi West 21.9 mph 33.4 mph 0.14 in Rain , Thunderstorm Heavy Rain
4:27 AM 64.4 °F - 62.6 °F 94% 29.82 in 2.0 mi WSW 9.2 mph 23.0 mph 0.27 in Rain , Thunderstorm Heavy Thunderstorms and Rain
4:53 AM 64.9 °F - 62.1 °F 90% 29.77 in 10.0 mi SSW 8.1 mph - 0.34 in Rain Light Rain
5:53 AM 66.0 °F - 62.1 °F 87% 29.78 in 10.0 mi SSW 11.5 mph - 0.01 in Rain Light Rain
6:53 AM 64.9 °F - 62.1 °F 90% 29.77 in 10.0 mi South 6.9 mph - 0.00 in   Clear
7:53 AM 66.9 °F - 62.1 °F 84% 29.78 in 10.0 mi SSW 15.0 mph - N/A   Clear
8:53 AM 68.0 °F - 60.1 °F 76% 29.79 in 10.0 mi SSW 18.4 mph 24.2 mph N/A   Clear
9:53 AM 69.1 °F - 61.0 °F 75% 29.79 in 10.0 mi SSW 13.8 mph - 0.00 in   Overcast
10:53 AM 71.1 °F - 61.0 °F 70% 29.79 in 10.0 mi SSW 17.3 mph - N/A   Clear
11:53 AM 73.9 °F - 62.1 °F 66% 29.78 in 10.0 mi South 13.8 mph - N/A   Clear
12:53 PM 75.9 °F - 62.1 °F 62% 29.78 in 10.0 mi SW 20.7 mph 26.5 mph N/A   Scattered Clouds
1:53 PM 79.0 °F - 62.1 °F 56% 29.75 in 10.0 mi SW 20.7 mph - N/A   Partly Cloudy
2:53 PM 80.1 °F 81.2 °F 62.1 °F 54% 29.75 in 10.0 mi SW 18.4 mph 24.2 mph N/A   Scattered Clouds
3:53 PM 81.0 °F 81.9 °F 62.1 °F 52% 29.75 in 10.0 mi WSW 17.3 mph 24.2 mph N/A   Mostly Cloudy
4:53 PM 82.9 °F 84.0 °F 63.0 °F 51% 29.73 in 10.0 mi WSW 15.0 mph 23.0 mph N/A   Clear
5:53 PM 84.0 °F 84.9 °F 63.0 °F 49% 29.73 in 10.0 mi SW 13.8 mph - N/A   Scattered Clouds
6:53 PM 82.9 °F 84.0 °F 63.0 °F 51% 29.71 in 10.0 mi WSW 11.5 mph 19.6 mph N/A   Mostly Cloudy
7:53 PM 80.1 °F 81.2 °F 62.1 °F 54% 29.70 in 10.0 mi SW 6.9 mph - 0.00 in   Clear
8:53 PM 77.0 °F - 64.0 °F 64% 29.70 in 10.0 mi SW 4.6 mph - N/A   Partly Cloudy
9:53 PM 75.0 °F - 63.0 °F 66% 29.73 in 10.0 mi SSW 6.9 mph - N/A   Scattered Clouds
10:53 PM 73.0 °F - 62.1 °F 68% 29.75 in 10.0 mi SSW 6.9 mph - N/A   Mostly Cloudy
11:53 PM 73.0 °F - 62.1 °F 68% 29.74 in 10.0 mi SSW 10.4 mph - N/A   Scattered Clouds